Regional Weather Roundup
Issued by NWS Burlington, VT

Home | Current Version | Previous Version | Text Only | Print | Product List | Glossary On
Versions: 1 2 3 4 5 6 7 8 9 10 11 12 13 14 15 16 17 18 19 20 21 22 23 24 25 26 27 28 29 30 31 32 33 34 35 36 37 38 39 40 41 42 43 44 45 46 47 48 49 50
000
ASUS41 KBTV 251630
RWRBTV
VERMONT REGIONAL WEATHER ROUNDUP
NATIONAL WEATHER SERVICE BURLINGTON VT
1100 AM EST SAT FEB 25 2017

NOTE: "FAIR" INDICATES FEW OR NO CLOUDS BELOW 12,000 FEET WITH NO
SIGNIFICANT WEATHER AND/OR OBSTRUCTIONS TO VISIBILITY.

* THESE REPORTS ARE NOT UNDER NWS QUALITY CONTROL AND/OR DO NOT
  REPORT WEATHER SUCH AS PRECIPITATION AND FOG.

VTZ001>019-251700-
_____VERMONT_____


CITY           SKY/WX    TMP DP  RH WIND       PRES   REMARKS
BURLINGTON     CLOUDY    62  53  72 S10       29.56F
MONTPELIER     CLOUDY    55  53  93 S17G23    29.67F
MORRISVILLE    CLOUDY    54  49  83 S14G25    29.62F
ST. JOHNSBURY*   N/A     52  50  93 MISG      29.65F
LYNDONVILLE*   CLOUDY    50  50  98 SE9       29.66F
MIDDLEBURY*    CLOUDY    65  41  41 S12G22    29.56F
RUTLAND*       CLOUDY    60  52  74 SE18G25   29.63F
SPRINGFIELD    CLOUDY    55  51  86 S8        29.69F
HIGHGATE*      CLOUDY    56  52  85 S6        29.54F
NEWPORT*       CLOUDY    52  49  90 S10G18    29.62F
BENNINGTON     CLOUDY    65  51  60 SE10      29.64F
SUTTON*          N/A     50 N/A N/A MISG        N/A
MT. MANSFIELD*   N/A     46 N/A N/A SE26G39     N/A

_____LAKE CHAMPLAIN_____


CITY           SKY/WX    TMP DP  RH WIND       PRES   REMARKS
BURTON ISLAND*   N/A     54  52  94 SW16G22     N/A
COLCHESTER RF*   N/A     48  48 100 S25         N/A
DIAMOND ISL*     N/A     52  50  93 S7          N/A

$$

NYZ007-026>031-035-052-083-087-251700-
_____NORTHERN NEW YORK_____


CITY           SKY/WX    TMP DP  RH WIND       PRES   REMARKS
PLATTSBURGH    CLOUDY    60  52  74 S18G28    29.53F
SARANAC LAKE   CLOUDY    57  51  80 S12       29.51F
MASSENA        CLOUDY    38  37  97 E8        29.48F
OGDENSBURG*    CLOUDY    43  42  97 E3        29.41F FOG
POTSDAM*       RAIN      54  54 100 S10       29.43F
WATERTOWN      CLOUDY    63  55  75 S10G21    29.39F
FT DRUM        CLOUDY    58  53  83 S14       29.42F
ALBANY         PTSUNNY   67  53  61 S24G33    29.62F
GLENS FALLS    CLOUDY    68  52  56 S22G37    29.59F

$$
NHZ002-005-011-251700-
_____NEW HAMPSHIRE_____


CITY           SKY/WX    TMP DP  RH WIND       PRES   REMARKS
LEBANON        CLOUDY    52  51  97 CALM      29.68F
KEENE          PTSUNNY   63  55  75 S18G24    29.71F
MT WASHINGTON  DRZL/FOG  39  39 100 S49G61      N/A  VSB 1/16WCI  25
PLYMOUTH       FOG       44  44  99 CALM      29.73F VSB 3/4
WHITEFIELD     MOSUNNY   61  49  64 S8G18     29.67F

$$

_____REGIONAL QUEBEC LOCATIONS_____


CITY           SKY/WX    TMP DP  RH WIND       PRES   REMARKS
MONTREAL       CLOUDY    34  34 100 NE14      29.52F FOG     WCI  24
QUEBEC CITY    CLOUDY    30  28  93 E13G20    29.69F WCI  20
SHERBROOKE     PTSUNNY   59  50  72 S13G25    29.60F

_____REGIONAL ONTARIO LOCATIONS_____


CITY           SKY/WX    TMP DP  RH WIND       PRES   REMARKS
OTTAWA         CLOUDY    34  34 100 E8        29.44F FOG     WCI  27

______KEY______
VSB  - VISIBILITY IN MILES
WCI  - WIND CHILL INDEX
HX   - HEAT INDEX
$$
NNNN




USA.gov is the U.S. government's official web portal to all federal, state and local government web resources and services.